Tracking 19145 objects as of 25-Apr-2018
HD Live streaming from Space Station
objects crossing your sky now

SL-16 DEB

Track SL-16 DEB now!
10-day predictions


NORAD ID: 27491
Int'l Code: 1998-043L
Perigee: 822.2 km
Apogee: 1,124.8 km
Inclination: 98.9 °
Period: 104.4 minutes
Semi major axis: 7344 km
RCS: 0.0795 m2 (small)
Launch date: July 10, 1998
Source: Commonwealth of Independent States (former USSR) (CIS)
Launch site: TYURATAM MISSILE AND SPACE COMPLEX (TTMTR)

Note: This is SATELLITE DEBRIS
aabbcc
Your satellite tracking list
Your tracking list is empty




NASA's NSSDC Master Catalog

Two Line Element Set (TLE):
1 27491U 98043L   18114.92956747 +.00000030 +00000-0 +60503-4 0  9992
2 27491 098.8989 287.6951 0206012 315.0707 043.3932 13.79313320995939
Source of the keplerian elements: AFSPC